Temp
12 12 12 12 12 13 13 13 14 14 14 14 15 15 15 15 15 15 15 15 15 15 15 15 15 15 15 15 16 16 16 17 17 16 16 16 16 15 15 15 15 15 14 14 13
12 12 12 12 12 12 13 13 14 14 15 15 15 15 15 15 14 15 15 15 15 15 14 15 14 15 15 15 15 16 16 17 17 17 17 17 17 16 15 15 16 15 15 14 13
12 12 12 12 12 12 13 13 14 14 14 15 15 15 15 15 14 15 15 15 14 14 14 14 15 14 15 15 15 16 16 17 17 18 18 18 17 17 17 16 16 16 15 14 13
12 12 12 12 12 12 13 13 13 14 14 15 15 15 15 15 14 14 15 15 15 14 14 15 14 14 15 15 15 16 16 17 18 18 18 18 18 18 17 17 16 16 15 15 13
11 12 12 12 12 12 13 13 13 14 14 15 14 15 15 15 14 14 14 15 15 14 14 14 15 14 15 15 15 16 17 17 17 18 18 18 18 18 18 17 16 16 16 15 14
11 12 12 12 12 12 13 13 13 14 14 15 15 15 15 15 15 14 14 14 14 14 14 14 14 14 15 15 15 16 17 17 17 18 18 18 18 18 18 18 17 16 16 15 14
11 11 12 12 12 12 12 13 13 13 14 14 14 15 15 15 15 15 14 14 14 14 14 14 14 15 15 15 15 16 16 17 17 17 17 18 18 18 17 17 17 17 16 15 14
11 11 11 11 12 12 12 13 13 13 13 14 14 15 15 16 15 15 14 14 14 14 14 14 14 14 15 15 15 16 16 17 17 17 17 17 17 17 17 17 17 17 16 15 14
10 11 11 11 11 12 12 12 13 13 13 14 14 15 15 16 15 15 15 14 14 13 13 13 13 14 14 15 15 16 16 17 17 16 17 17 17 17 17 17 17 17 16 15 15
10 10 10 11 11 11 11 12 12 13 13 13 14 14 15 15 15 15 15 14 14 14 13 13 14 14 14 15 16 15 16 16 17 17 17 17 18 17 17 17 17 16 15 15 15
9 9 10 10 11 11 11 12 12 12 13 13 14 14 15 15 15 15 14 14 14 14 13 13 14 14 14 14 14 15 15 16 17 17 17 17 17 18 17 17 18 17 15 15 14
9 9 9 9 10 10 11 11 11 12 13 13 14 14 14 14 15 14 15 14 14 14 13 14 13 14 14 14 14 14 15 15 17 17 17 17 18 18 18 18 18 17 17 16 15
8 9 9 9 9 10 10 10 11 11 12 14 14 14 15 14 15 15 15 14 14 14 14 14 14 14 14 14 14 15 15 16 16 17 17 17 17 18 18 18 18 18 17 16 16
7 8 8 8 8 9 9 10 10 10 10 13 14 14 15 15 14 15 14 14 14 14 14 14 14 14 14 14 14 15 15 16 16 17 17 17 18 18 18 18 18 18 18 17 16
6 7 8 8 8 8 8 8 9 9 10 13 14 14 14 15 15 15 15 14 14 15 14 14 14 14 14 14 14 15 15 16 16 17 17 16 17 18 18 18 18 18 18 17 16
6 7 7 8 7 7 7 7 8 8 9 12 13 13 13 14 14 14 15 14 14 14 14 14 14 14 14 15 15 15 15 16 16 16 17 16 16 17 18 18 18 18 17 16 15
5 6 7 6 7 7 7 7 7 8 11 12 12 12 13 13 13 14 14 14 14 13 13 14 14 14 14 14 15 15 15 16 17 17 18 16 15 17 18 18 18 17 16 16 15
5 6 6 6 6 7 7 6 6 9 10 11 11 12 12 13 13 13 13 14 14 14 14 13 14 15 15 15 15 15 15 16 16 17 17 16 16 17 17 18 18 17 16 16 15
5 5 6 6 6 6 6 6 7 8 9 10 11 11 12 12 13 13 13 14 14 15 14 14 14 15 15 15 15 15 15 16 16 14 15 15 16 17 17 17 18 17 16 15 15
5 5 6 6 6 6 6 6 7 8 9 9 10 11 11 12 12 13 14 13 14 14 14 14 14 15 14 15 15 15 15 15 15 15 15 14 15 17 17 17 17 17 16 15 15
4 5 5 5 6 6 6 6 6 7 8 8 9 10 11 11 11 12 13 13 13 14 14 14 14 14 14 15 15 15 15 15 15 14 17 17 16 17 17 17 17 16 16 15 15
4 4 5 5 5 6 6 6 6 6 8 8 8 9 9 10 11 11 12 12 13 13 14 14 14 14 14 15 15 15 15 15 15 14 14 14 17 17 17 17 17 17 16 15 15
3 4 4 4 4 5 5 6 6 6 7 7 7 8 9 10 10 11 11 12 12 12 13 13 13 15 14 14 15 15 15 15 15 15 15 16 17 17 17 17 17 17 16 15 15
3 3 4 4 4 4 5 5 5 6 7 7 8 7 8 9 10 11 11 11 12 12 12 13 13 14 15 15 15 15 16 15 15 15 15 15 16 16 17 17 17 17 17 15 14
2 3 4 3 4 4 4 5 5 6 6 7 7 8 8 9 10 10 11 11 11 12 12 12 13 13 13 14 14 15 15 15 15 15 16 16 16 16 16 16 16 16 15 15 14
2 2 3 3 4 4 4 5 5 6 6 7 7 8 8 9 10 10 10 11 11 11 12 12 13 13 13 13 13 13 14 14 14 15 15 15 15 16 16 16 15 15 15 15 14
2 2 3 3 3 4 4 5 5 6 7 7 7 8 9 9 9 9 10 10 11 11 11 11 12 12 13 13 13 13 14 14 14 14 14 14 14 15 15 16 16 16 15 15 15
Height
3194 3195 3195 3196 3196 3197 3198 3198 3198 3199 3199 3199 3199 3199 3200 3200 3200 3202 3205 3208 3208 3209 3210 3208 3209 3208 3208 3207 3207 3206 3206 3204 3202 3201 3201 3198 3197 3198 3198 3197 3197 3198 3198 3196 3194
3194 3194 3195 3195 3196 3196 3197 3197 3197 3197 3198 3198 3198 3198 3198 3198 3198 3198 3201 3203 3206 3207 3209 3208 3208 3209 3209 3207 3207 3206 3206 3205 3203 3201 3200 3199 3197 3196 3196 3197 3198 3198 3198 3196 3196
3193 3193 3194 3194 3194 3195 3195 3195 3195 3196 3196 3197 3197 3197 3197 3196 3196 3195 3196 3200 3203 3205 3207 3207 3206 3208 3208 3207 3207 3205 3206 3204 3203 3200 3199 3198 3197 3195 3195 3195 3198 3198 3197 3197 3196
3191 3191 3192 3193 3193 3194 3194 3194 3194 3195 3195 3196 3196 3196 3196 3196 3197 3193 3193 3196 3200 3203 3205 3205 3206 3207 3208 3207 3206 3205 3205 3204 3202 3200 3197 3197 3197 3195 3195 3195 3195 3196 3197 3197 3196
3188 3189 3189 3190 3191 3191 3192 3192 3192 3193 3193 3194 3195 3195 3195 3195 3195 3194 3193 3194 3197 3200 3202 3204 3204 3205 3206 3206 3205 3204 3204 3203 3201 3200 3198 3197 3196 3195 3194 3193 3193 3195 3196 3197 3195
3185 3186 3186 3187 3188 3189 3189 3189 3190 3191 3191 3192 3193 3193 3194 3194 3194 3194 3194 3195 3196 3198 3200 3201 3202 3202 3204 3204 3204 3203 3203 3202 3201 3199 3198 3195 3195 3193 3193 3192 3192 3194 3196 3195 3193
3181 3182 3182 3184 3184 3186 3186 3186 3187 3188 3188 3189 3190 3191 3192 3193 3192 3192 3193 3194 3195 3196 3198 3199 3199 3200 3201 3202 3202 3202 3202 3202 3200 3199 3197 3195 3193 3193 3191 3191 3191 3192 3194 3193 3193
3177 3178 3178 3179 3180 3181 3182 3182 3184 3185 3185 3186 3187 3188 3189 3190 3190 3191 3191 3192 3193 3194 3195 3195 3195 3196 3198 3200 3199 3201 3201 3200 3198 3197 3196 3195 3191 3192 3189 3190 3189 3191 3191 3192 3191
3172 3173 3174 3175 3176 3177 3178 3178 3180 3181 3182 3183 3185 3185 3187 3187 3187 3188 3189 3189 3190 3192 3192 3193 3193 3194 3196 3197 3198 3198 3199 3197 3196 3195 3195 3194 3190 3191 3189 3188 3187 3187 3189 3190 3190
3167 3168 3169 3170 3171 3172 3173 3174 3175 3177 3179 3180 3181 3184 3184 3184 3184 3185 3186 3187 3188 3189 3190 3191 3191 3192 3193 3194 3195 3195 3195 3194 3193 3194 3193 3191 3189 3189 3188 3185 3184 3183 3188 3189 3190
3161 3162 3163 3164 3165 3166 3168 3170 3174 3174 3174 3176 3177 3178 3179 3180 3181 3182 3183 3184 3185 3186 3187 3188 3189 3189 3191 3191 3191 3192 3192 3190 3190 3190 3190 3188 3187 3185 3182 3182 3181 3180 3182 3185 3186
3156 3157 3158 3159 3160 3161 3162 3164 3166 3168 3168 3169 3171 3173 3176 3176 3177 3179 3181 3182 3181 3183 3184 3186 3184 3187 3188 3188 3189 3189 3188 3187 3186 3187 3188 3185 3184 3182 3179 3179 3178 3177 3178 3180 3180
3151 3152 3152 3153 3155 3156 3157 3159 3160 3162 3163 3164 3165 3168 3170 3172 3172 3174 3176 3177 3178 3179 3180 3181 3182 3183 3184 3185 3186 3186 3185 3184 3183 3182 3183 3182 3181 3179 3178 3177 3176 3175 3175 3176 3175
3146 3146 3147 3148 3152 3151 3152 3153 3156 3158 3159 3159 3160 3162 3164 3165 3166 3170 3171 3174 3175 3175 3177 3177 3176 3178 3180 3181 3184 3182 3181 3179 3177 3179 3181 3180 3178 3177 3175 3175 3174 3174 3173 3173 3174
3140 3141 3142 3144 3145 3147 3149 3150 3152 3155 3156 3154 3153 3154 3157 3159 3161 3164 3166 3167 3168 3170 3174 3173 3173 3173 3176 3178 3179 3179 3178 3175 3174 3174 3176 3175 3177 3174 3174 3173 3172 3171 3169 3171 3173
3135 3136 3137 3138 3141 3143 3144 3147 3151 3156 3149 3146 3147 3147 3149 3151 3153 3156 3159 3161 3165 3166 3167 3169 3171 3172 3173 3175 3176 3176 3175 3173 3172 3172 3173 3172 3174 3172 3171 3171 3170 3168 3167 3168 3171
3130 3130 3132 3133 3135 3138 3141 3145 3150 3146 3143 3143 3143 3144 3144 3145 3146 3148 3151 3153 3157 3161 3161 3163 3164 3167 3170 3171 3172 3173 3173 3172 3171 3171 3169 3169 3170 3169 3169 3168 3167 3165 3165 3166 3167
3126 3126 3127 3129 3128 3132 3137 3143 3142 3135 3137 3137 3138 3140 3141 3140 3141 3143 3144 3147 3151 3153 3156 3158 3161 3162 3164 3166 3168 3169 3169 3168 3168 3168 3168 3168 3167 3167 3166 3166 3164 3163 3162 3163 3165
3121 3122 3122 3123 3124 3128 3133 3133 3130 3132 3133 3134 3137 3137 3138 3137 3138 3139 3140 3143 3146 3148 3153 3154 3156 3158 3159 3161 3164 3164 3165 3166 3166 3167 3168 3166 3164 3164 3162 3160 3161 3161 3161 3162 3164
3116 3116 3117 3118 3120 3124 3126 3123 3125 3129 3131 3132 3133 3135 3135 3135 3136 3136 3137 3139 3142 3145 3148 3150 3153 3154 3156 3158 3159 3160 3161 3163 3163 3165 3164 3163 3161 3161 3158 3156 3157 3159 3159 3160 3162
3112 3112 3113 3113 3115 3118 3117 3118 3121 3126 3129 3131 3131 3132 3133 3133 3133 3133 3135 3137 3137 3138 3142 3145 3149 3152 3152 3153 3154 3156 3156 3158 3159 3160 3157 3157 3159 3157 3156 3156 3156 3157 3158 3158 3159
3108 3109 3109 3110 3112 3112 3113 3116 3119 3122 3126 3127 3128 3129 3130 3132 3131 3132 3133 3134 3135 3136 3138 3140 3142 3145 3147 3149 3150 3151 3153 3154 3155 3157 3155 3155 3155 3154 3154 3154 3154 3155 3156 3156 3157
3106 3105 3107 3107 3109 3109 3111 3113 3115 3118 3121 3123 3123 3126 3128 3130 3132 3131 3132 3133 3133 3134 3135 3136 3137 3140 3142 3145 3144 3146 3147 3148 3149 3150 3150 3151 3151 3151 3151 3151 3151 3152 3152 3152 3153
3104 3104 3105 3105 3107 3108 3109 3110 3112 3114 3115 3116 3117 3122 3124 3126 3128 3129 3130 3131 3132 3133 3133 3134 3134 3134 3136 3137 3139 3140 3142 3143 3145 3145 3145 3146 3147 3148 3149 3149 3149 3149 3149 3149 3150
3101 3101 3102 3103 3106 3107 3108 3109 3109 3110 3110 3111 3113 3114 3119 3123 3124 3125 3128 3130 3131 3132 3132 3133 3133 3133 3133 3134 3134 3136 3137 3139 3140 3142 3142 3143 3143 3145 3144 3144 3145 3145 3146 3146 3147
3098 3099 3100 3103 3104 3105 3106 3106 3106 3107 3108 3110 3110 3112 3114 3117 3121 3123 3125 3127 3128 3130 3131 3131 3132 3131 3132 3133 3134 3134 3135 3137 3138 3139 3139 3140 3141 3142 3143 3144 3143 3142 3141 3142 3143
3095 3097 3099 3101 3103 3105 3104 3105 3105 3105 3107 3107 3107 3107 3108 3113 3117 3120 3122 3124 3126 3127 3128 3129 3130 3131 3132 3132 3133 3135 3134 3135 3136 3136 3138 3139 3140 3140 3141 3141 3140 3140 3139 3138 3138
Wind_Speed
4 4 5 5 5 5 5 5 6 6 7 7 8 8 10 15 20 22 21 16 11 7 3 5 6 8 10 12 11 12 14 17 19 18 17 14 16 13 10 8 11 9 9 13 11
6 7 7 6 6 7 6 6 6 5 6 6 7 7 7 9 11 15 25 23 17 12 8 7 8 8 8 11 8 9 14 16 14 17 17 9 14 15 16 15 11 13 10 8 12
9 9 8 8 8 8 8 7 6 6 6 7 6 5 5 6 7 8 17 26 22 18 14 11 12 9 8 8 10 13 12 16 12 12 14 10 9 13 14 14 10 13 12 7 9
12 11 11 11 10 10 9 9 8 8 8 7 6 4 3 5 2 3 8 23 26 22 17 16 15 13 10 10 11 16 11 14 10 10 12 12 9 13 10 11 14 15 13 8 7
16 15 14 13 12 11 11 11 10 10 9 8 7 4 2 4 4 3 3 14 24 23 21 20 19 16 13 13 13 15 12 13 11 6 10 10 6 10 7 10 11 11 6 3 4
20 18 17 16 15 14 13 13 12 11 11 9 8 5 3 4 6 6 4 6 17 23 23 23 21 20 17 16 15 15 12 10 8 6 7 13 9 13 8 6 8 8 3 2 2
24 22 21 19 18 16 15 15 14 13 13 11 10 7 5 7 6 10 6 8 11 17 21 23 24 22 20 17 14 15 12 10 11 7 9 7 11 13 16 8 8 8 5 6 3
25 26 24 23 21 19 18 17 16 14 14 13 11 9 6 7 5 10 13 11 11 12 14 18 21 20 19 19 16 14 14 10 9 5 11 5 15 11 14 11 13 11 5 7 3
24 25 26 26 24 22 21 20 18 16 15 14 12 11 9 8 8 12 14 15 14 13 13 16 16 13 16 18 20 15 12 15 17 10 10 17 17 5 9 13 14 14 7 7 5
25 24 25 26 26 25 23 22 21 20 17 15 14 13 9 11 9 8 10 13 17 18 16 15 14 12 12 14 18 11 12 18 19 13 16 17 12 11 12 15 13 13 9 6 4
24 25 24 25 25 25 24 23 23 22 21 19 14 13 11 15 12 10 9 13 17 19 18 14 15 13 13 13 11 12 14 21 19 19 16 17 8 15 12 9 7 9 5 7 8
23 23 24 24 23 23 24 22 22 22 24 23 22 20 16 13 15 14 12 14 17 23 21 20 19 16 17 16 13 12 14 20 20 14 16 12 9 8 6 5 7 7 7 11 10
22 22 22 23 22 21 22 21 20 20 22 24 23 22 22 23 20 17 16 16 18 22 23 23 17 10 13 17 15 13 18 16 17 17 12 9 6 9 8 8 7 9 7 13 15
21 21 21 21 21 19 19 19 18 16 12 23 21 23 23 24 26 18 23 21 21 20 17 17 19 20 13 13 10 13 8 13 11 11 7 8 6 8 7 7 9 8 11 13 14
21 19 19 19 19 18 18 16 13 10 4 9 22 24 24 26 25 24 25 28 27 24 17 13 7 10 16 12 8 10 11 15 7 6 7 7 4 6 5 6 10 10 13 8 9
17 19 17 18 17 20 17 12 12 7 10 8 11 10 18 27 28 28 28 30 30 29 23 20 18 14 14 12 10 12 13 11 6 5 7 7 5 8 7 8 12 13 12 5 9
17 16 17 15 16 19 17 15 11 9 12 9 11 11 12 16 20 22 27 27 31 21 26 28 27 23 19 17 15 12 11 3 4 5 7 7 5 13 10 6 12 9 3 10 14
17 15 15 13 18 18 19 22 12 15 23 11 13 9 5 9 14 14 23 23 28 31 16 22 15 20 19 22 15 14 9 5 5 4 6 5 4 10 7 6 14 7 9 12 12
17 16 14 16 17 18 22 28 17 19 11 26 18 11 6 6 9 17 22 22 23 26 17 11 12 13 8 12 16 14 13 11 6 3 4 7 13 15 10 14 13 8 9 11 8
17 15 16 14 15 19 25 33 27 17 11 8 10 8 4 5 7 10 15 19 23 23 23 19 14 13 5 10 16 16 12 6 7 4 6 4 6 9 10 9 6 7 10 9 4
12 12 13 11 15 20 30 32 29 20 18 10 7 7 7 1 2 4 11 9 12 18 21 22 19 13 9 10 11 13 14 8 5 5 5 4 5 9 9 7 4 6 10 7 5
11 9 11 10 17 23 27 30 26 18 22 21 18 14 8 3 4 1 6 8 6 11 15 21 15 20 21 19 21 14 13 14 10 6 8 5 8 8 8 10 6 9 12 11 8
9 8 9 10 13 17 20 22 22 21 24 27 26 19 21 13 5 6 6 6 5 5 3 13 14 14 9 10 14 16 15 15 16 15 12 6 5 5 5 12 11 12 14 15 13
8 5 8 12 10 9 9 11 13 16 22 24 30 23 16 17 14 5 8 7 5 1 5 3 7 10 11 9 10 16 17 15 17 10 9 12 7 9 10 10 12 15 16 18 18
10 9 10 9 16 10 9 10 12 14 15 12 18 24 22 19 17 15 10 7 7 6 4 3 3 4 2 5 13 12 12 18 18 11 8 7 8 5 10 13 11 15 18 21 23
11 10 12 10 9 11 9 9 12 13 15 10 11 11 21 26 18 14 11 8 6 4 3 4 5 4 4 4 3 5 12 11 12 13 11 8 4 6 6 7 9 14 18 22 24
12 13 12 14 7 5 2 2 1 3 9 9 9 11 22 24 15 12 11 10 8 7 5 4 5 6 6 7 6 6 9 10 10 9 8 7 8 10 6 6 10 12 17 17 21
Wind_Direction
280 268 263 257 246 233 226 219 216 218 231 247 257 255 251 250 245 231 225 223 228 232 253 302 343 360 11 18 18 20 17 14 9 5 5 339 325 310 294 315 342 351 36 41 60
264 266 259 253 251 250 242 232 227 224 232 243 256 265 268 264 264 242 222 219 219 228 245 264 301 330 354 357 2 1 7 1 5 354 347 342 331 307 295 298 324 5 356 19 30
261 260 261 259 254 252 255 248 246 246 244 242 237 258 277 283 281 258 226 216 217 224 237 252 272 300 320 334 339 326 353 349 358 343 346 350 315 319 309 306 328 326 343 345 3
260 258 259 258 256 253 253 257 250 243 241 242 241 242 269 288 268 301 219 210 215 223 233 244 260 281 289 303 314 313 339 340 339 345 347 344 315 310 325 306 305 307 322 336 344
259 256 255 257 256 255 255 255 251 248 245 241 244 237 239 270 244 272 251 204 212 224 233 241 249 272 278 281 294 306 315 325 334 354 336 347 318 301 325 317 304 310 318 326 343
258 259 257 254 255 254 254 253 251 247 244 238 241 237 229 238 233 233 250 234 224 227 236 243 250 261 266 269 280 290 302 310 330 345 321 321 301 326 321 332 312 299 249 206 68
261 258 257 256 253 253 253 253 251 249 245 243 239 229 235 236 237 221 219 235 236 235 239 244 250 251 254 263 265 278 298 271 299 358 342 300 290 318 305 282 315 295 229 198 90
259 261 260 258 255 252 251 252 252 250 250 247 245 228 215 253 220 213 218 225 225 226 229 235 237 240 241 252 265 276 292 273 278 8 15 312 283 329 291 285 291 291 266 208 192
261 259 260 260 259 256 253 250 249 249 249 248 246 238 209 241 234 227 225 221 213 211 222 224 228 234 226 241 262 273 281 274 273 294 315 332 316 327 317 306 291 290 279 223 231
264 262 260 260 259 259 258 253 251 247 245 248 245 237 220 224 232 243 237 231 222 215 219 229 239 236 232 235 254 267 277 265 264 265 309 329 307 312 301 303 282 280 268 233 213
264 262 261 260 259 258 259 260 256 255 245 240 236 223 220 217 221 225 225 232 226 216 217 234 241 236 233 243 254 271 265 272 246 297 309 324 328 310 297 273 278 270 234 199 208
267 263 260 260 258 258 257 257 256 258 253 247 241 238 223 216 220 220 225 231 232 218 224 238 245 247 245 251 261 267 274 270 264 271 312 316 319 324 341 310 285 275 176 184 196
266 264 262 257 256 256 255 255 254 256 259 245 246 238 235 229 226 221 232 234 239 228 232 243 246 251 244 246 255 266 281 281 271 279 299 315 319 337 6 2 324 310 218 196 214
263 262 260 258 252 251 252 250 251 256 269 251 253 245 239 240 233 222 222 240 234 239 238 257 250 240 235 236 250 277 296 311 279 272 281 307 308 325 341 347 339 320 295 240 224
262 260 256 251 248 244 245 245 241 243 274 241 237 238 235 238 245 236 237 229 236 245 226 249 247 203 211 216 254 271 300 316 291 260 278 290 268 288 289 333 330 311 289 282 221
266 257 256 250 242 237 234 223 214 197 238 211 213 218 233 238 241 235 237 227 233 236 240 249 238 230 223 232 251 281 301 297 271 248 252 250 228 260 279 303 302 303 301 220 206
278 266 257 249 236 230 220 196 188 215 225 221 199 203 235 240 236 230 235 223 218 217 230 242 242 243 244 250 252 259 279 257 224 224 261 285 258 274 275 290 287 303 331 205 203
278 276 264 243 237 224 206 189 216 231 216 203 199 201 250 237 230 220 223 219 220 227 234 222 246 243 234 236 243 239 242 235 247 240 278 285 246 285 263 287 285 282 198 199 227
279 277 264 247 233 220 202 194 222 225 227 233 254 263 243 219 210 209 213 220 226 224 209 208 235 231 237 235 227 224 236 244 231 260 264 267 269 286 286 243 248 252 199 196 222
276 262 266 251 233 218 207 213 221 218 222 232 227 220 194 185 185 193 186 220 228 232 232 237 250 256 227 219 240 236 238 234 221 206 251 226 244 264 302 261 231 235 199 188 226
282 265 262 243 223 213 216 221 225 217 225 232 223 198 200 146 127 178 183 184 207 221 228 224 229 238 239 219 215 224 225 230 238 209 260 251 235 248 292 315 213 216 205 197 217
272 261 255 234 211 216 222 228 231 224 225 244 245 243 246 291 280 267 165 179 171 206 217 214 225 236 243 247 256 252 250 259 238 221 211 235 253 272 259 255 266 221 226 224 229
259 244 251 221 211 225 232 238 245 246 237 242 255 256 258 260 269 219 203 156 124 118 157 214 218 229 239 232 242 237 248 254 242 240 229 222 252 229 227 237 237 227 230 234 235
230 212 233 214 199 197 208 219 235 235 237 240 243 240 246 243 231 227 200 186 202 133 36 173 222 212 244 239 222 227 243 233 214 208 223 224 224 219 228 237 236 227 224 230 234
222 207 219 228 215 217 232 244 236 236 237 231 236 237 228 226 224 227 235 235 246 290 312 336 239 191 237 224 211 214 227 209 210 218 207 215 222 245 236 238 245 249 250 250 245
224 215 209 215 216 227 248 272 268 244 228 218 247 232 212 214 218 222 237 234 236 239 238 258 260 276 256 247 223 196 189 204 215 220 213 196 149 197 248 274 291 267 259 257 258
226 222 214 213 223 228 205 240 213 208 227 232 243 223 216 203 213 222 232 238 240 253 279 277 260 252 260 255 236 241 229 225 228 210 208 192 195 188 202 255 296 318 288 279 269